Retour au catalogue

COSMOS 1275 DEB

ActifPO
NORAD 17617·DEBRIS·🇷🇺 Russia

Lancé Jun 4, 1981 depuis Plesetsk Cosmodrome

Loading…

Prochains Passages (prochaines 24 heures)

TLE

FraisSource: Space-Track

Époque: Sep 13, 2026, 10:22 UTC

1 17617U 81053KL  26256.43232707  .00000439  00000-0  45302-3 0  9991
2 17617  82.8566  55.6835 0174678 271.1319 115.9076 13.67756145 54359

Suivez COSMOS 1275 DEB en temps réel avec AllMySat

Download on the App Store